Location: East Horndon
(51.5667°N, 0.3500°E)
Time: 10:20:15
(UTC+00:00)

TIMED - Pass Details

Date: 08 November 2025
Orbit: 582 x 584 km, 74.1° (Epoch: 11 December)

Event Time Altitude Azimuth Distance (km) Brightness Sun altitude
Exits shadow 04:39:59 56° 341° (NNW) 704 4.6 -22.6°
Maximum altitude 04:40:52 86° 64° (ENE) 594 4.4 -22.5°
Drops below altitude 10° 04:45:08 10° 155° (SSE) 1,905 7.3 -21.8°
Sets 04:47:20 0° 156° (SSE) 2,800 8.2 -21.5°
